TimeEDT,TemperatureF,Dew PointF,Humidity,Sea Level PressureIn,VisibilityMPH,Wind Direction,Wind SpeedMPH,Gust SpeedMPH,PrecipitationIn,Events,Conditions,WindDirDegrees,DateUTC
12:15 AM,48.4,44.6,87,30.39,10.0,NNW,4.6,-,N/A,,Overcast,330,2013-10-14 04:15:00
12:35 AM,48.4,45.1,89,30.40,10.0,NNW,3.5,-,N/A,,Overcast,330,2013-10-14 04:35:00
12:54 AM,48.4,44.8,87,30.40,10.0,NNW,3.5,-,N/A,,Mostly Cloudy,330,2013-10-14 04:54:00
1:15 AM,41.5,40.5,96,30.40,10.0,Calm,Calm,-,N/A,,Clear,0,2013-10-14 05:15:00
1:34 AM,41.0,40.5,98,30.40,10.0,Calm,Calm,-,N/A,,Clear,0,2013-10-14 05:34:00
1:55 AM,39.7,39.7,100,30.41,10.0,Calm,Calm,-,N/A,,Clear,0,2013-10-14 05:55:00
2:15 AM,38.1,38.1,100,30.41,1.0,Calm,Calm,-,N/A,,Mist,0,2013-10-14 06:15:00
2:35 AM,38.1,38.1,100,30.42,3.0,Calm,Calm,-,N/A,,Clear,0,2013-10-14 06:35:00
2:54 AM,35.8,35.8,100,30.42,5.0,Calm,Calm,-,N/A,,Clear,0,2013-10-14 06:54:00
3:15 AM,33.8,33.8,100,30.42,10.0,Calm,Calm,-,N/A,,Clear,0,2013-10-14 07:15:00
3:35 AM,33.6,33.6,100,30.42,10.0,Calm,Calm,-,N/A,,Clear,0,2013-10-14 07:35:00
3:54 AM,33.3,33.3,100,30.43,1.8,Calm,Calm,-,N/A,,Mist,0,2013-10-14 07:54:00
4:15 AM,33.3,33.1,99,30.43,10.0,Calm,Calm,-,N/A,,Clear,0,2013-10-14 08:15:00
4:35 AM,33.3,33.1,99,30.43,2.0,Calm,Calm,-,N/A,,Clear,0,2013-10-14 08:35:00
4:54 AM,33.3,33.1,99,30.43,2.5,Calm,Calm,-,N/A,,Clear,0,2013-10-14 08:54:00
5:15 AM,31.5,31.5,100,30.43,0.5,Calm,Calm,-,N/A,Fog,Light Freezing Fog,0,2013-10-14 09:15:00
5:34 AM,31.6,31.6,100,30.43,0.8,Calm,Calm,-,N/A,,Mist,0,2013-10-14 09:34:00
5:55 AM,30.7,30.7,100,30.44,0.8,Calm,Calm,-,N/A,,Mist,0,2013-10-14 09:55:00
6:15 AM,31.6,31.6,100,30.44,0.8,Calm,Calm,-,N/A,,Mist,0,2013-10-14 10:15:00
6:34 AM,31.1,31.1,100,30.44,10.0,Calm,Calm,-,N/A,,Clear,0,2013-10-14 10:34:00
6:55 AM,29.3,29.3,100,30.44,10.0,Calm,Calm,-,N/A,,Clear,0,2013-10-14 10:55:00
7:14 AM,28.4,28.4,100,30.44,1.0,Calm,Calm,-,N/A,,Mist,0,2013-10-14 11:14:00
7:35 AM,29.5,29.5,100,30.44,10.0,Calm,Calm,-,N/A,,Clear,0,2013-10-14 11:35:00
7:54 AM,28.4,28.4,100,30.44,10.0,Calm,Calm,-,N/A,,Clear,0,2013-10-14 11:54:00
8:15 AM,27.9,27.7,99,30.44,1.0,Calm,Calm,-,N/A,,Mist,0,2013-10-14 12:15:00
8:35 AM,29.3,29.3,100,30.44,10.0,Calm,Calm,-,N/A,,Clear,0,2013-10-14 12:35:00
8:54 AM,33.1,33.1,100,30.44,10.0,Calm,Calm,-,N/A,,Clear,0,2013-10-14 12:54:00
9:15 AM,35.4,35.4,100,30.44,10.0,Calm,Calm,-,N/A,,Clear,0,2013-10-14 13:15:00
9:34 AM,38.3,38.3,100,30.44,10.0,Calm,Calm,-,N/A,,Clear,0,2013-10-14 13:34:00
9:55 AM,39.6,38.1,95,30.44,10.0,Calm,Calm,-,N/A,,Clear,0,2013-10-14 13:55:00
10:15 AM,45.3,40.1,82,30.45,10.0,Calm,Calm,-,N/A,,Clear,0,2013-10-14 14:15:00
10:34 AM,48.4,40.5,74,30.45,10.0,Calm,Calm,-,N/A,,Clear,0,2013-10-14 14:34:00
10:55 AM,49.5,37.9,65,30.43,10.0,East,3.5,-,N/A,,Clear,80,2013-10-14 14:55:00
11:54 AM,53.8,37.2,54,30.43,10.0,ENE,4.6,-,N/A,,Clear,70,2013-10-14 15:54:00
12:15 PM,53.6,35.2,50,30.43,10.0,ENE,5.8,-,N/A,,Clear,60,2013-10-14 16:15:00
12:34 PM,55.2,35.6,48,30.41,10.0,NE,5.8,-,N/A,,Clear,50,2013-10-14 16:34:00
12:55 PM,55.6,35.6,47,30.40,10.0,East,9.2,-,N/A,,Clear,90,2013-10-14 16:55:00
1:15 PM,55.9,34.7,45,30.40,2.0,ENE,6.9,-,N/A,,Haze,60,2013-10-14 17:15:00
1:34 PM,55.9,35.4,46,30.40,10.0,East,6.9,-,N/A,,Clear,80,2013-10-14 17:34:00
1:55 PM,57.0,35.1,44,30.40,10.0,ENE,4.6,-,N/A,,Clear,70,2013-10-14 17:55:00
2:15 PM,56.5,34.2,43,30.39,4.0,Calm,Calm,-,N/A,,Haze,0,2013-10-14 18:15:00
2:34 PM,58.5,34.9,41,30.40,10.0,NNE,4.6,-,N/A,,Clear,30,2013-10-14 18:34:00
2:55 PM,58.5,33.1,38,30.38,10.0,NE,4.6,-,N/A,,Clear,40,2013-10-14 18:55:00
3:14 PM,58.5,32.9,38,30.36,10.0,North,4.6,-,N/A,,Clear,10,2013-10-14 19:14:00
3:35 PM,58.5,32.4,37,30.36,10.0,ENE,6.9,-,N/A,,Clear,70,2013-10-14 19:35:00
3:55 PM,58.5,32.5,38,30.35,4.0,East,6.9,-,N/A,,Haze,80,2013-10-14 19:55:00
4:14 PM,58.5,32.5,38,30.34,10.0,ENE,5.8,-,N/A,,Clear,60,2013-10-14 20:14:00
4:35 PM,58.5,31.1,35,30.34,10.0,Calm,Calm,-,N/A,,Clear,0,2013-10-14 20:35:00
4:54 PM,58.5,32.0,37,30.33,10.0,ENE,4.6,-,N/A,,Clear,70,2013-10-14 20:54:00
5:15 PM,58.5,34.0,40,30.33,10.0,NE,4.6,-,N/A,,Clear,40,2013-10-14 21:15:00
5:35 PM,57.6,33.6,41,30.33,10.0,ENE,5.8,-,N/A,,Clear,70,2013-10-14 21:35:00
5:55 PM,56.8,33.4,41,30.33,10.0,ENE,4.6,-,N/A,,Clear,70,2013-10-14 21:55:00
6:15 PM,56.1,34.5,44,30.33,10.0,ENE,5.8,-,N/A,,Clear,60,2013-10-14 22:15:00
6:34 PM,55.8,36.0,47,30.33,10.0,ENE,4.6,-,N/A,,Clear,60,2013-10-14 22:34:00
6:55 PM,53.6,36.7,53,30.33,10.0,ENE,4.6,-,N/A,,Clear,60,2013-10-14 22:55:00
7:15 PM,48.4,35.8,62,30.32,10.0,ENE,5.8,-,N/A,,Clear,60,2013-10-14 23:15:00
7:35 PM,48.4,36.5,64,30.32,10.0,East,6.9,-,N/A,,Clear,80,2013-10-14 23:35:00
7:55 PM,48.4,36.7,64,30.31,10.0,East,6.9,-,N/A,,Clear,80,2013-10-14 23:55:00
8:14 PM,46.4,36.0,67,30.31,10.0,Calm,Calm,-,N/A,,Clear,0,2013-10-15 00:14:00
8:35 PM,44.1,35.6,72,30.30,10.0,Calm,Calm,-,N/A,,Clear,0,2013-10-15 00:35:00
8:54 PM,41.0,35.4,81,30.31,10.0,Calm,Calm,-,N/A,,Clear,0,2013-10-15 00:54:00
9:15 PM,41.7,36.1,81,30.31,10.0,East,5.8,-,N/A,,Clear,90,2013-10-15 01:15:00
9:35 PM,42.8,36.9,80,30.31,10.0,East,6.9,-,N/A,,Clear,100,2013-10-15 01:35:00
9:54 PM,41.5,36.7,83,30.31,10.0,ESE,4.6,-,N/A,,Clear,120,2013-10-15 01:54:00
10:15 PM,41.0,37.2,86,30.31,10.0,East,3.5,-,N/A,,Clear,100,2013-10-15 02:15:00
10:34 PM,39.2,36.7,91,30.31,10.0,Calm,Calm,-,N/A,,Clear,0,2013-10-15 02:34:00
10:55 PM,37.2,35.4,93,30.31,10.0,Calm,Calm,-,N/A,,Clear,0,2013-10-15 02:55:00
11:15 PM,35.8,35.1,97,30.31,10.0,Calm,Calm,-,N/A,,Clear,0,2013-10-15 03:15:00
11:34 PM,34.7,34.3,99,30.31,10.0,Calm,Calm,-,N/A,,Clear,0,2013-10-15 03:34:00
11:55 PM,34.9,34.9,100,30.29,10.0,Calm,Calm,-,N/A,,Clear,0,2013-10-15 03:55:00